GEFSNE_500_meanwind_132.txt.gz
Wind_Speed
6 5 5 6 8 9 11 13 15 17 19 21 22 23 25 26 27 28 29 28 27 27 28 29 28 28 27 27 27 27 26 27 27 26 26 26 25 26
7 5 4 5 7 8 10 12 13 15 18 20 22 22 24 24 26 27 29 28 28 27 28 29 29 29 29 29 28 29 28 28 28 27 27 27 27 27
8 6 5 4 6 7 9 11 12 13 15 18 21 21 23 24 25 26 27 28 29 28 29 29 30 29 29 29 29 29 29 29 29 29 29 28 28 28
8 7 5 5 5 6 8 10 12 13 14 16 19 20 21 23 24 25 25 27 28 28 29 30 30 30 30 30 30 30 30 30 30 30 30 31 30 30
9 7 6 6 6 7 8 10 11 13 14 16 18 19 20 22 24 25 25 26 27 29 30 30 30 30 30 29 29 29 29 30 30 30 30 31 31 31
10 8 7 7 7 8 8 9 11 12 14 15 17 18 20 21 22 23 23 25 26 27 28 29 29 30 30 29 29 29 29 30 30 31 31 32 32 32
11 10 10 9 9 10 10 11 11 12 14 15 16 17 18 20 21 22 23 23 24 26 27 28 30 30 30 30 30 30 30 30 31 31 32 33 33 34
12 12 11 11 10 11 11 12 13 14 15 16 17 18 18 19 21 22 23 23 24 26 27 28 29 29 30 30 29 30 31 31 31 32 32 32 33 34
15 14 13 13 12 12 13 13 13 15 16 17 19 20 20 20 21 22 23 23 25 26 27 29 30 30 31 31 31 32 32 32 32 33 32 32 34 34
17 16 16 15 15 15 15 15 15 16 17 18 19 20 21 22 22 22 23 23 25 26 27 28 29 30 30 31 32 32 32 33 33 34 34 35 35 36
19 19 18 18 18 18 17 17 17 18 18 19 20 21 22 23 23 23 24 24 25 26 27 28 29 29 30 31 31 32 32 33 34 34 34 35 35 36
23 22 21 21 20 20 20 20 20 20 20 20 21 22 23 23 23 24 24 25 26 26 27 29 29 30 30 31 32 32 32 33 33 34 34 35 36 36
26 25 24 24 23 23 22 22 22 22 22 22 22 23 23 24 25 25 25 26 26 27 28 28 29 30 30 31 32 33 33 34 34 34 35 35 36 36
29 28 27 26 26 25 25 24 24 24 24 23 23 23 24 25 25 26 26 26 26 27 27 28 29 30 30 31 32 33 33 34 34 35 35 35 36 36
32 31 31 30 29 28 27 27 26 26 26 25 25 25 25 25 25 26 26 27 27 27 28 28 29 29 30 30 32 32 33 34 34 35 35 36 37 37
34 34 33 32 32 31 29 29 28 28 27 27 27 27 27 26 26 26 27 27 27 27 28 28 29 29 29 29 30 31 31 32 34 35 36 37 38 39
37 36 35 34 34 33 32 31 30 29 29 29 28 28 28 28 28 28 28 28 28 28 28 29 29 30 30 31 31 31 32 32 33 34 35 36 37 38
40 38 37 36 35 35 34 33 33 32 31 30 30 30 30 30 29 29 29 29 29 29 29 30 30 30 31 31 31 32 33 33 34 35 36 36 37 38
41 40 39 38 37 36 36 35 35 34 34 33 32 31 31 31 30 30 30 30 30 30 30 30 30 30 30 31 31 32 33 34 35 35 36 36 37 37
43 42 41 40 39 38 37 37 36 36 36 35 34 34 33 32 32 32 31 31 31 31 31 31 31 31 31 31 32 32 33 33 34 35 36 36 37 38
45 44 43 42 41 41 40 39 38 38 37 36 36 35 35 34 34 33 33 33 33 33 32 32 33 33 33 33 33 33 33 34 34 35 35 35 36 37
47 46 45 43 42 43 42 41 40 40 39 38 37 36 35 35 35 34 34 34 34 33 33 33 33 34 34 34 34 35 35 35 35 35 35 36 37 37
48 47 46 46 44 43 43 43 42 41 40 39 38 38 37 36 35 35 34 34 34 34 33 33 33 34 34 34 35 35 35 35 36 36 36 37 37 37

GEFSNE_500_meanwind_138.txt.gz
Wind_Speed
12 10 8 6 5 4 5 7 8 9 12 14 16 18 19 21 22 22 22 23 23 23 23 23 24 25 25 25 25 24 23 23 23 23 22 22 21 21
12 10 8 7 5 4 5 6 8 9 11 13 15 17 19 20 22 22 23 23 23 23 24 24 24 25 25 26 26 25 26 25 24 24 23 23 23 23
13 11 9 7 6 5 6 6 8 10 11 12 14 16 18 20 21 22 23 23 24 24 25 25 25 26 26 26 26 26 26 26 26 26 25 25 25 25
13 12 10 9 7 7 7 7 8 9 11 12 13 14 16 19 21 22 23 23 25 25 25 26 25 26 26 27 28 28 28 28 28 27 27 27 27 26
13 12 11 10 9 8 8 8 9 9 11 12 13 14 16 18 19 21 23 24 24 25 26 26 26 27 27 27 27 28 28 29 29 29 29 29 29 29
14 14 13 12 11 10 9 10 10 11 12 13 14 15 16 18 19 21 22 23 24 25 25 26 26 26 27 27 27 27 28 29 29 30 30 30 30 30
16 15 14 14 13 13 12 12 12 12 13 13 14 15 17 18 19 20 22 24 24 25 26 26 27 27 28 28 28 28 28 29 29 29 30 30 30 30
18 17 16 16 15 15 14 14 15 15 15 15 16 17 18 19 20 20 22 24 24 25 26 27 28 28 29 29 28 28 28 29 29 29 30 30 30 30
21 20 20 19 18 17 17 17 17 17 17 18 18 19 20 20 22 22 22 23 24 25 26 27 28 28 28 28 29 29 29 30 31 31 31 31 31 32
24 24 23 22 22 21 20 20 20 20 20 20 20 21 22 22 22 23 23 24 26 26 27 27 27 28 28 29 29 29 29 30 30 32 32 32 32 33
27 26 26 26 25 25 24 23 23 23 23 23 23 23 23 24 24 24 25 25 27 27 28 28 28 29 29 29 29 30 30 31 31 32 32 32 32 33
30 30 29 29 29 29 28 27 27 26 26 26 26 26 26 26 26 26 26 27 27 27 28 28 29 29 29 30 30 31 31 31 31 32 32 32 33 33
34 33 32 32 33 33 32 31 30 30 29 29 28 28 28 28 28 28 28 28 28 28 29 30 29 29 29 30 31 31 32 32 32 32 32 31 32 33
37 37 36 35 35 35 34 34 33 33 32 31 31 30 30 30 30 30 30 30 30 29 30 30 30 30 30 30 30 31 31 31 32 32 32 32 32 33
40 40 39 38 37 37 36 36 35 35 34 33 33 32 32 31 31 31 31 31 31 31 30 30 30 31 31 31 31 31 31 32 32 32 32 33 33 34
43 42 41 41 40 39 38 38 37 37 36 35 35 34 34 33 33 33 32 32 32 31 31 30 31 31 31 31 31 31 31 30 31 31 32 32 33 33
45 44 43 42 42 42 40 39 39 39 38 37 37 36 35 35 34 34 34 34 33 32 32 32 32 33 32 32 31 31 31 31 31 31 31 31 31 31
46 45 44 43 43 43 43 41 41 40 39 39 38 38 37 36 35 35 35 34 34 34 34 34 34 33 33 33 33 32 32 31 31 32 31 31 31 31
47 46 45 44 44 44 44 43 43 42 41 40 39 39 39 38 37 37 36 35 35 35 34 34 34 34 33 33 32 32 32 32 32 32 32 32 31 32
48 47 47 46 46 45 45 44 43 43 42 42 41 41 40 39 39 38 38 37 36 35 35 35 35 34 34 33 32 32 33 33 32 32 32 32 32 33
48 47 46 46 46 45 45 44 44 43 44 44 42 41 41 41 40 39 38 38 38 37 35 36 36 35 34 34 33 33 33 33 32 33 33 33 33 33
48 47 46 46 46 46 46 46 45 44 44 44 43 42 42 42 42 41 40 39 39 37 36 36 36 35 35 34 33 33 33 33 33 33 32 32 33 33
47 47 46 46 46 47 47 47 46 45 44 44 44 43 42 42 42 41 41 40 39 38 37 36 37 37 36 35 34 33 33 33 33 32 32 32 32 32

GEFSNE_500_meanwind_144.txt.gz
Wind_Speed
12 10 8 7 5 4 4 4 5 7 8 11 13 14 17 19 19 20 21 21 22 22 23 23 24 24 24 25 25 25 24 24 25 24 24 24 24 24
12 10 9 8 6 5 4 4 5 6 8 10 12 14 16 18 19 20 20 22 22 22 22 23 24 25 25 26 26 26 26 26 26 26 25 25 25 25
12 11 10 9 7 6 5 5 5 6 8 10 12 14 16 17 18 20 21 23 24 24 24 24 24 25 26 27 27 27 27 27 27 27 27 26 27 27
12 12 11 10 8 7 7 6 6 7 8 10 12 13 15 17 18 20 22 23 24 26 26 26 26 27 27 27 28 28 29 29 29 29 29 29 28 28
13 12 12 11 9 9 8 8 8 9 9 10 11 13 14 16 18 19 22 24 25 26 27 27 27 27 28 29 29 29 30 30 30 30 30 30 30 30
14 14 13 13 12 11 11 11 11 11 12 12 13 14 15 16 18 20 21 24 25 26 27 28 28 29 29 29 30 30 30 30 30 31 31 31 31 31
16 16 15 15 15 14 14 14 14 14 14 15 15 16 18 19 20 21 22 24 25 27 28 29 29 30 30 30 31 31 32 32 32 31 31 32 33 33
18 18 18 18 18 18 17 17 17 17 17 18 18 19 20 21 22 23 24 25 26 27 29 30 30 30 31 32 32 32 33 33 33 33 34 34 34 35
21 21 21 21 21 21 21 21 21 21 21 21 22 22 23 24 24 25 26 26 27 28 30 30 31 32 33 33 34 34 34 33 34 34 35 35 35 35
24 25 25 25 25 25 25 25 25 25 25 25 25 26 26 27 27 28 29 29 29 29 31 31 32 33 34 34 34 34 35 35 35 35 35 35 35 35
28 29 29 29 29 30 30 29 28 28 28 28 28 29 29 30 30 31 31 32 32 32 32 33 33 33 34 35 35 36 36 36 36 36 36 36 36 37
32 32 33 33 34 34 34 33 32 32 32 32 32 32 33 33 33 33 34 35 35 34 34 35 35 35 35 36 36 37 37 38 38 38 37 37 38 38
36 36 37 37 37 37 37 37 36 36 36 36 36 36 36 36 36 36 37 37 37 36 36 36 36 37 37 37 38 38 39 38 39 40 39 39 39 39
40 40 40 40 40 40 40 40 40 39 39 39 39 38 38 38 39 39 39 39 39 38 38 38 38 38 37 37 38 39 39 39 39 40 40 40 39 39
44 44 44 44 44 43 43 43 43 43 42 41 41 40 40 40 41 40 40 40 39 39 40 40 39 39 39 39 39 39 39 39 39 39 40 40 39 39
47 47 47 47 46 46 45 44 44 44 44 43 42 42 42 42 42 42 41 42 41 40 41 41 41 41 41 41 40 40 39 39 39 39 39 39 39 39
50 49 49 48 47 46 45 44 44 45 45 44 43 43 43 43 43 43 43 43 43 43 42 42 43 43 43 42 41 40 40 39 39 39 38 38 38 39
50 49 49 48 47 46 45 45 46 46 46 46 45 45 45 44 44 44 45 44 45 45 44 44 44 44 44 43 41 40 40 40 40 38 38 37 38 38
51 50 50 49 48 48 47 47 47 47 48 48 48 47 47 47 46 46 46 47 46 46 45 45 45 44 44 43 42 42 41 40 40 40 39 38 37 37
52 52 51 50 50 49 49 49 49 49 49 49 49 48 47 47 47 47 47 46 46 46 46 47 46 45 44 44 43 42 42 41 41 41 40 40 39 38
53 52 52 51 51 51 51 51 50 49 48 48 48 47 48 47 46 46 47 46 46 47 46 46 46 46 46 46 44 42 42 42 42 41 41 41 40 39
53 53 53 53 52 52 52 51 50 49 49 49 48 48 48 47 47 47 47 48 47 46 46 44 44 46 46 46 44 43 42 42 42 42 42 41 40 39
54 54 54 53 53 52 50 49 48 47 47 48 48 47 47 46 46 46 46 47 46 46 45 45 44 45 46 46 45 44 42 42 42 42 42 41 40 39

GEFSNE_500_meanwind_150.txt.gz
Wind_Speed
11 11 11 9 8 7 6 6 5 5 6 6 8 10 13 14 16 17 18 19 20 20 21 22 22 23 24 25 24 24 25 26 26 25 25 25 25 26
12 12 11 10 9 8 7 6 6 5 6 7 8 10 12 14 16 17 18 19 20 21 22 22 23 24 25 25 25 25 26 27 27 27 26 27 27 26
11 12 12 11 10 9 8 7 7 7 7 7 9 10 11 13 16 17 19 20 21 22 23 24 24 24 26 26 26 27 28 28 28 28 28 28 28 28
12 12 12 12 11 11 10 10 9 9 8 9 9 10 12 13 15 17 19 20 21 23 24 25 25 26 26 27 27 27 28 28 29 30 30 29 29 29
12 13 13 13 13 12 12 11 11 11 11 11 11 11 12 14 15 17 19 20 22 23 24 25 26 26 27 28 29 29 29 29 30 30 31 31 30 30
14 14 14 14 14 14 14 14 13 13 13 13 13 13 14 15 16 18 19 21 22 23 24 25 27 27 28 29 30 31 31 31 31 32 33 33 32 32
16 16 16 16 16 16 16 16 16 16 16 16 16 16 17 18 19 20 21 22 24 25 26 27 28 29 30 31 32 32 32 33 33 33 34 34 34 34
18 18 18 18 18 18 18 19 19 19 19 20 20 20 20 21 22 23 23 24 25 27 29 30 31 31 32 33 33 34 35 35 35 35 36 36 36 36
21 21 21 21 21 21 22 22 22 22 23 23 23 23 24 24 25 26 27 27 28 29 30 32 33 34 34 35 35 35 36 36 37 37 38 38 38 38
23 23 24 24 24 24 25 25 26 26 26 26 27 28 29 29 29 30 31 31 32 32 34 34 35 36 37 37 37 38 39 39 39 39 39 40 40 40
26 27 27 27 27 28 28 28 29 29 30 31 31 32 32 33 33 33 34 35 35 35 36 37 38 39 39 39 39 40 41 41 41 42 42 41 41 42
29 30 30 30 31 31 32 32 33 33 34 34 35 36 36 36 37 37 37 38 38 38 39 40 41 42 42 42 43 43 43 44 44 43 43 43 43 43
32 32 33 34 35 35 36 36 37 37 38 38 39 39 40 40 40 40 40 40 41 41 42 43 43 44 44 44 44 44 45 45 46 45 45 45 44 44
35 36 37 37 38 39 40 41 41 41 41 41 41 41 41 41 42 42 43 43 44 44 44 45 46 46 46 46 46 45 46 46 46 46 46 46 46 45
38 39 40 41 41 42 43 44 44 44 44 44 44 43 43 44 44 44 44 45 45 46 46 46 47 47 48 47 46 46 46 46 47 47 47 47 47 47
42 42 43 44 45 45 46 46 46 46 46 46 46 46 46 46 46 46 46 46 46 46 46 47 48 48 48 48 48 48 47 47 46 47 47 46 47 47
44 45 46 47 47 47 48 48 48 49 49 49 49 48 48 48 47 47 47 48 48 47 47 48 48 49 49 49 49 48 48 48 48 48 48 48 47 47
47 47 49 50 50 50 50 51 51 51 51 51 51 51 50 50 50 49 49 49 49 49 49 49 49 50 50 50 49 49 49 48 49 49 49 49 48 47
50 51 51 52 53 53 53 53 53 53 53 53 52 52 52 52 51 51 51 50 50 50 50 50 50 50 51 50 49 49 50 49 49 49 49 49 48 47
54 54 55 55 55 55 54 54 54 54 53 53 52 52 52 52 52 52 51 51 50 50 50 51 51 51 51 50 49 48 49 50 50 50 49 49 48 48
56 56 56 57 56 55 55 54 54 54 54 53 53 53 53 53 52 51 51 50 50 50 50 51 51 51 51 51 51 50 50 50 50 49 49 49 49 49
57 57 57 56 55 55 55 54 54 54 54 53 53 52 52 52 51 51 50 50 50 50 50 50 50 50 50 51 50 51 50 50 50 49 49 49 49 48
57 56 56 55 55 54 54 54 54 53 53 53 52 51 51 50 49 49 49 49 49 48 48 48 49 49 49 49 49 49 49 49 49 49 48 48 47 47